Wetbulb
60.51 60.38 60.01 59.61 59.14 58.83 58.58 58.40 58.68 58.82 59.01 58.99 59.06 58.98 58.78 58.50 57.22 56.25 55.49 55.19 54.86 54.49 54.09 53.72 53.78 54.05 54.51 55.08 55.49 55.85 56.08 56.15 56.02 55.90 55.89 55.97 56.60 57.05 57.42 57.56 57.59 57.55 57.50 57.59 57.41 56.92 56.42 56.10 55.71 55.05 54.51 54.11 53.82 53.73 53.92 54.47 54.70 54.67 54.54 54.33 54.22 54.26 54.31 54.14 54.10 54.00 53.98 53.88 53.67
60.26 60.10 59.69 59.02 58.66 58.41 58.31 58.41 58.54 58.80 59.16 59.21 59.00 58.83 58.39 57.61 56.15 55.01 54.10 53.55 53.26 53.10 52.96 52.75 53.12 53.34 53.52 53.88 54.29 54.61 54.71 54.49 54.35 54.31 54.23 53.89 54.62 54.89 55.21 55.57 55.78 55.74 55.70 55.79 55.75 55.57 55.35 55.43 54.75 54.07 53.61 53.20 52.83 52.72 52.91 53.61 53.95 53.69 53.23 53.12 53.03 52.85 52.82 52.57 52.57 52.73 52.76 52.61 52.54
59.96 59.77 59.41 58.95 58.58 58.20 57.94 57.93 58.23 58.38 58.27 58.01 57.99 57.62 57.08 56.05 54.91 53.88 53.24 52.84 52.96 52.88 52.59 52.30 52.58 52.67 52.75 52.98 53.21 53.36 53.33 53.12 53.08 52.98 52.85 52.64 53.09 53.22 53.27 53.67 53.97 54.06 54.11 54.26 54.21 54.12 53.99 53.94 53.54 53.04 52.50 52.14 51.94 51.58 51.45 51.87 52.48 52.32 51.93 51.72 51.70 51.49 51.24 50.95 51.09 51.25 51.37 51.23 51.20
60.10 59.71 59.24 58.76 58.31 58.05 57.89 57.48 57.40 57.13 56.75 56.04 55.92 55.54 54.94 54.17 53.33 52.75 52.38 52.49 52.39 52.12 51.94 51.91 51.80 51.84 52.06 52.18 52.14 51.92 51.85 51.77 51.77 51.64 51.55 51.73 51.69 51.74 51.78 51.96 52.27 52.50 52.63 52.85 52.85 52.90 52.86 52.67 52.19 51.65 51.24 51.15 50.69 50.44 50.39 50.62 51.14 51.09 50.75 50.52 50.51 50.34 50.05 49.71 49.88 49.95 49.99 49.82 49.89
59.62 59.34 59.03 58.66 58.30 57.96 57.67 57.19 56.61 56.01 55.37 54.67 54.10 53.57 53.08 52.64 52.34 51.94 51.55 51.06 50.80 50.66 50.80 51.07 50.96 51.00 51.08 51.15 51.01 50.79 50.63 50.59 50.59 50.37 50.06 49.84 49.84 49.98 50.29 50.52 50.52 50.70 50.92 51.05 51.23 51.14 51.05 50.96 50.61 50.16 49.80 49.84 49.66 49.87 50.14 50.43 50.28 49.97 49.67 49.35 49.27 49.01 48.80 48.58 48.83 49.04 49.20 49.11 48.93
57.44 57.40 57.33 57.55 56.91 56.45 56.14 55.93 55.23 54.66 54.16 53.87 52.92 52.27 52.01 51.85 51.23 50.65 50.08 49.60 49.47 49.55 49.73 49.78 49.88 49.87 49.86 49.89 49.80 49.58 49.32 49.20 49.16 48.98 48.71 48.40 48.31 48.35 48.40 48.49 48.85 49.08 49.39 49.52 49.61 49.61 49.57 49.30 48.94 48.81 48.81 48.85 48.67 49.11 49.66 49.65 49.17 48.85 48.51 48.11 48.19 48.15 48.02 47.68 47.84 48.17 48.46 48.53 48.11
54.36 54.44 54.61 54.92 54.56 54.07 53.77 53.68 53.54 52.99 52.58 52.38 51.45 50.76 50.32 50.28 49.73 49.24 48.84 48.71 48.66 48.61 48.57 48.53 48.57 48.53 48.48 48.39 48.16 47.94 47.54 47.32 47.45 47.41 47.23 47.05 46.83 46.60 46.42 46.51 46.74 47.23 47.63 48.04 48.26 48.44 48.58 48.40 47.82 47.59 47.59 47.72 47.90 47.86 47.81 48.01 47.97 47.58 46.93 46.46 46.80 47.15 47.24 47.12 46.98 47.06 47.10 47.32 47.19
51.05 51.14 51.14 51.46 51.68 51.67 51.57 51.53 51.39 50.89 50.26 49.90 49.37 48.97 48.71 48.40 48.04 47.76 47.63 47.45 47.18 47.14 47.09 47.00 47.05 47.05 47.09 46.96 46.87 46.60 46.38 46.06 45.93 45.93 45.88 45.80 45.48 45.17 44.86 44.77 44.86 45.08 45.44 45.98 46.33 46.60 46.69 46.64 46.46 46.01 45.74 45.79 45.61 45.70 45.93 46.38 46.56 46.29 45.72 45.24 45.50 45.94 46.20 46.25 46.07 45.55 45.20 45.37 45.46
48.35 48.31 48.35 48.62 48.93 48.98 49.06 49.20 49.41 49.23 48.70 48.17 47.99 47.81 47.54 46.96 46.96 46.78 46.56 46.15 46.02 45.93 45.94 45.80 45.84 45.89 45.80 45.48 45.52 45.52 45.43 45.16 44.89 44.71 44.76 44.63 44.33 44.02 43.79 43.66 43.40 43.44 43.70 43.97 44.15 44.10 43.92 43.86 43.45 43.31 43.41 43.50 43.68 43.88 44.29 44.78 44.96 44.93 44.72 44.26 44.34 44.34 44.51 44.81 44.77 44.43 44.08 44.03 44.10
46.55 46.51 46.51 46.51 46.65 46.69 46.83 46.92 47.14 47.05 46.74 46.33 46.42 46.47 46.33 46.20 46.11 45.84 45.53 45.35 45.31 45.10 44.75 44.62 44.62 44.53 44.30 44.10 44.18 44.22 44.22 44.14 43.82 43.73 43.63 43.41 43.10 42.96 42.74 42.61 42.40 42.32 42.36 42.59 42.77 42.67 42.49 42.02 41.48 41.40 41.72 42.09 42.15 42.39 42.80 43.33 43.21 43.00 42.81 42.43 42.89 42.94 42.82 42.87 43.41 43.50 43.41 43.11 43.16
44.98 45.02 45.12 45.03 45.12 45.21 45.13 44.90 44.86 44.81 44.72 44.45 44.58 44.76 44.85 44.81 44.73 44.74 44.71 44.63 44.49 44.06 43.71 43.76 43.76 43.50 43.23 42.99 43.06 43.09 43.14 42.86 42.62 42.54 42.39 42.07 41.81 41.62 41.49 41.44 41.26 41.14 41.19 41.42 41.66 41.67 41.49 40.96 40.45 40.36 40.61 40.92 40.96 41.06 41.28 41.59 41.48 41.20 40.98 40.85 41.16 41.11 41.01 41.18 41.80 42.13 42.16 42.23 42.12
43.49 43.63 43.68 43.77 43.86 43.91 43.83 43.56 43.38 43.15 43.06 43.05 43.36 43.41 43.46 43.38 43.62 43.87 43.89 43.77 43.41 43.10 42.86 43.13 43.01 42.79 42.61 42.48 42.40 42.19 41.93 41.46 41.36 41.15 40.89 40.39 40.26 40.23 40.25 40.24 40.01 39.88 39.85 40.00 40.10 40.12 39.93 39.40 39.10 39.01 39.21 39.83 39.91 39.80 40.01 40.37 40.42 40.31 40.26 40.14 40.12 39.92 39.80 39.91 40.37 40.78 41.10 41.38 41.36
42.55 42.55 42.60 42.70 42.62 42.37 42.12 41.84 41.80 41.71 41.79 41.85 42.07 42.21 42.27 42.45 42.93 42.99 42.88 42.71 42.23 42.03 41.89 42.16 42.21 42.12 41.78 41.53 41.45 41.25 40.96 40.67 40.51 40.09 39.54 38.98 38.89 38.81 38.72 38.52 38.38 38.27 38.25 38.36 38.53 38.45 38.26 37.97 37.97 38.02 38.18 38.60 38.71 38.93 39.21 39.36 39.44 39.44 39.37 39.29 39.25 39.12 39.07 39.43 39.98 40.48 40.85 40.93 40.86
41.64 41.64 41.55 41.62 41.46 41.08 40.61 40.35 40.36 40.35 40.31 40.30 40.53 40.77 41.00 41.34 41.79 42.03 42.00 41.69 41.20 40.95 40.84 40.94 41.03 41.08 41.09 40.94 40.82 40.62 40.43 40.19 39.87 39.46 38.97 38.56 38.28 37.91 37.50 37.03 36.92 36.92 37.02 37.13 37.36 37.37 37.20 37.11 37.42 37.59 37.64 37.67 37.83 38.12 38.40 38.59 38.44 38.19 37.94 37.62 37.56 37.69 38.04 38.53 39.30 39.82 40.14 40.01 39.95
40.61 40.58 40.50 40.42 40.21 39.85 39.53 39.17 39.07 39.02 39.04 38.97 39.20 39.41 39.71 40.03 40.46 40.97 41.14 40.67 40.26 40.10 39.93 39.64 39.66 39.82 39.93 40.00 39.97 39.90 39.71 39.47 39.03 38.68 38.28 38.04 37.85 37.45 36.93 36.56 36.51 36.47 36.43 36.36 36.32 36.23 36.30 36.44 36.69 36.85 36.94 36.74 36.83 37.11 37.38 37.49 37.30 37.09 36.83 36.57 36.48 36.68 37.03 37.50 38.22 38.69 38.88 38.76 38.70
39.47 39.50 39.54 39.37 39.20 38.87 38.53 38.17 38.06 38.01 37.94 37.90 38.05 38.15 38.42 38.90 39.48 39.94 40.02 39.55 39.38 39.25 39.21 39.00 38.91 38.91 38.99 39.06 39.00 38.86 38.75 38.52 38.25 37.87 37.59 37.36 37.11 36.68 36.32 36.23 36.38 36.38 36.26 35.81 35.43 35.47 35.68 35.90 36.02 36.06 36.03 35.98 35.93 36.05 36.13 36.03 36.06 35.97 35.96 35.95 36.12 36.32 36.52 36.96 37.41 37.68 37.76 37.77 37.52
38.09 38.09 38.05 38.01 37.91 37.67 37.46 37.19 37.13 37.00 36.93 36.86 36.92 37.03 37.32 37.90 38.58 38.75 38.66 38.50 38.53 38.39 38.38 38.52 38.54 38.49 38.44 38.47 38.46 38.33 38.03 37.80 37.65 37.38 37.11 36.83 36.47 36.10 35.85 35.83 36.10 36.14 35.87 35.32 35.09 35.07 35.24 35.51 35.76 35.80 35.63 35.39 35.18 35.17 35.13 34.97 34.87 34.93 35.09 35.33 35.60 35.88 36.15 36.54 36.78 36.90 36.87 36.92 36.92
36.63 36.67 36.67 36.63 36.53 36.42 36.32 36.21 36.14 36.06 36.03 35.85 35.87 36.03 36.30 36.73 37.02 37.09 37.24 37.59 37.65 37.63 37.65 37.82 38.01 38.07 37.92 37.70 37.81 37.80 37.62 37.04 37.05 36.97 36.74 36.50 36.38 36.29 36.19 36.02 36.14 36.06 35.71 35.28 34.97 34.91 35.07 35.38 35.72 35.62 35.32 34.98 34.77 34.61 34.40 34.15 34.14 34.24 34.39 34.66 35.00 35.32 35.64 35.87 36.10 36.28 36.47 36.59 36.76
35.31 35.34 35.41 35.32 35.32 35.39 35.38 35.46 35.33 35.26 35.18 35.09 35.02 35.04 35.15 35.34 35.53 35.68 36.02 36.63 37.12 37.37 37.44 37.48 37.66 37.69 37.53 37.38 37.44 37.50 37.24 36.49 36.37 36.34 36.39 36.36 36.44 36.36 36.32 36.16 36.19 36.00 35.77 35.47 35.35 35.29 35.37 35.47 35.60 35.34 34.99 34.63 34.48 34.19 33.98 33.76 33.61 33.59 33.69 33.87 34.34 34.70 35.05 35.29 35.62 36.03 36.32 36.50 36.75
34.24 34.26 34.24 34.35 34.40 34.44 34.51 34.49 34.58 34.54 34.51 34.47 34.34 34.36 34.43 34.40 34.30 34.38 34.75 35.32 36.16 36.70 36.96 37.13 37.12 37.19 37.22 37.31 37.27 37.26 37.03 36.44 36.15 36.01 35.98 36.05 35.95 35.85 35.78 35.70 35.63 35.66 35.69 35.74 35.65 35.58 35.58 35.58 35.55 35.38 35.13 34.79 34.36 34.15 34.02 33.92 33.40 33.21 33.35 33.63 34.04 34.35 34.63 35.01 35.40 35.79 36.16 36.48 36.74
33.50 33.61 33.68 33.71 33.65 33.59 33.66 33.80 33.76 33.69 33.65 33.62 33.62 33.73 33.77 33.74 33.61 33.67 34.02 34.58 34.98 35.42 35.77 36.30 36.50 36.69 36.89 37.02 37.02 36.98 36.93 36.86 36.51 36.21 36.02 35.98 35.80 35.66 35.60 35.37 35.17 35.19 35.21 35.23 35.14 35.14 35.26 35.38 35.44 35.36 35.11 34.83 34.46 34.40 34.47 34.50 33.94 33.55 33.52 33.78 34.12 34.33 34.57 34.85 35.11 35.32 35.65 36.03 36.42
32.75 32.99 33.15 33.28 33.11 33.01 33.01 32.96 32.92 32.70 32.47 32.41 32.69 32.89 33.11 33.26 33.39 33.54 33.84 34.27 34.48 34.67 34.90 35.34 35.80 36.25 36.69 36.86 36.86 36.97 37.04 37.06 36.94 36.66 36.44 36.21 35.99 35.92 35.86 35.66 35.37 35.06 34.85 34.61 34.56 34.60 34.72 34.88 34.97 34.93 34.88 34.72 34.72 34.76 34.83 34.71 34.40 34.15 33.99 34.02 34.16 34.30 34.47 34.69 34.78 34.93 35.10 35.40 35.88
32.21 32.39 32.57 32.59 32.62 32.64 32.50 32.29 32.03 31.83 31.63 31.57 31.90 32.23 32.50 32.55 32.96 33.36 33.79 34.05 34.19 34.33 34.48 34.78 35.45 35.97 36.42 36.72 36.75 36.73 36.61 36.54 36.49 36.50 36.47 36.37 36.32 36.28 36.18 35.88 35.41 34.96 34.59 34.49 34.60 34.63 34.64 34.51 34.59 34.67 34.79 34.73 34.86 34.84 34.84 34.79 34.61 34.49 34.29 34.09 34.02 34.03 34.17 34.32 34.43 34.56 34.63 34.78 35.07
31.36 31.48 31.71 31.87 31.77 31.67 31.63 31.64 31.49 31.27 31.15 30.99 31.42 31.65 31.77 31.77 32.34 32.77 33.08 33.43 33.66 33.90 34.16 34.45 34.99 35.48 35.98 36.26 36.33 36.27 36.09 35.91 35.85 36.05 36.28 36.60 36.32 36.13 35.86 35.60 35.17 34.80 34.69 34.73 34.94 34.96 34.76 34.34 34.19 34.29 34.39 34.50 34.57 34.57 34.53 34.55 34.49 34.29 34.09 33.68 33.53 33.47 33.56 33.69 33.86 33.97 34.02 34.07 34.24
30.51 30.61 30.71 30.64 30.93 30.90 30.77 30.82 30.60 30.45 30.38 30.39 30.69 31.01 31.21 31.34 31.93 32.27 32.68 32.89 33.36 33.70 34.00 34.22 34.70 35.11 35.47 35.76 35.97 36.15 36.09 36.01 35.78 35.75 35.96 36.32 36.43 36.29 35.92 35.34 34.84 34.67 34.72 34.91 35.29 35.33 35.12 34.76 34.37 34.16 34.05 34.14 34.07 33.89 33.76 33.69 33.56 33.42 33.26 33.11 33.01 32.91 32.95 32.96 33.15 33.23 33.45 33.68 33.80
29.93 29.82 29.72 29.88 30.22 30.34 30.25 30.17 29.89 29.74 29.71 29.93 30.04 30.32 30.68 31.19 31.65 31.98 32.24 32.60 33.08 33.72 34.21 34.41 34.56 34.93 35.21 35.35 35.72 35.95 36.12 36.25 36.23 36.28 36.38 36.48 36.76 36.80 36.53 35.96 35.43 35.10 35.04 35.40 35.73 35.87 35.74 35.55 35.15 34.64 34.14 33.73 33.22 32.75 32.36 32.21 32.41 32.56 32.68 32.75 32.69 32.60 32.48 32.42 32.55 32.79 33.14 33.39 33.58
29.60 29.30 29.22 29.47 29.50 29.45 29.43 29.68 29.60 29.55 29.48 29.60 29.72 29.97 30.44 31.08 31.41 31.71 31.99 32.30 33.01 33.66 34.30 34.61 34.71 35.12 35.47 35.55 35.63 35.84 36.14 36.49 36.89 37.25 37.46 37.50 37.40 37.15 36.69 36.28 35.95 35.65 35.62 35.94 36.15 36.15 36.09 36.04 35.77 35.23 34.54 33.76 33.19 32.62 32.14 31.93 32.27 32.42 32.55 32.58 32.50 32.32 32.21 32.02 32.12 32.40 32.68 33.10 33.47
29.27 29.06 28.76 28.60 28.51 28.71 28.94 29.29 29.24 29.23 29.24 29.36 29.60 29.98 30.42 30.84 31.25 31.55 31.84 32.28 32.85 33.46 34.01 34.40 34.89 35.32 35.60 35.63 35.62 35.94 36.33 36.77 37.11 37.31 37.44 37.65 37.61 37.39 37.05 36.54 36.54 36.54 36.49 36.50 36.36 36.21 36.10 36.09 35.83 35.46 34.82 34.10 33.55 33.12 32.76 32.58 32.63 32.53 32.50 32.35 32.22 32.13 31.98 31.98 32.09 32.19 32.43 32.71 33.19
28.84 28.64 28.21 27.73 27.66 27.92 28.30 28.38 28.55 28.74 29.01 29.34 29.47 29.64 29.98 30.45 30.99 31.38 31.64 31.92 32.49 32.95 33.49 34.18 34.94 35.35 35.56 35.63 35.89 36.28 36.66 36.80 36.93 37.07 37.28 37.60 37.50 37.41 37.27 37.15 36.88 36.86 36.90 36.97 36.63 36.30 36.03 35.79 35.54 35.13 34.64 34.09 33.79 33.51 33.34 33.02 32.76 32.51 32.29 32.16 32.12 32.04 31.93 31.90 31.98 32.10 32.29 32.50 32.85
28.42 28.15 27.82 27.47 27.29 27.39 27.69 27.83 28.20 28.50 28.80 29.05 29.30 29.63 30.00 30.47 30.67 30.87 31.00 31.07 31.32 32.16 33.25 34.19 34.67 34.91 35.12 35.50 35.95 36.22 36.45 36.80 37.50 37.87 37.90 37.47 37.19 37.10 37.11 37.11 37.00 36.98 36.99 37.01 36.63 36.17 35.71 35.36 35.01 34.60 34.25 33.95 33.72 33.50 33.29 33.01 32.63 32.36 32.05 31.96 31.89 31.81 31.75 31.70 31.66 31.75 31.98 32.31 32.49
28.16 27.99 27.79 27.53 27.26 27.28 27.49 27.87 28.25 28.60 28.85 29.15 29.44 29.69 29.95 30.21 30.38 30.75 31.01 31.20 31.53 32.37 33.30 34.12 34.21 34.56 35.04 35.46 35.80 35.88 35.92 36.18 36.92 37.33 37.33 37.04 36.72 36.38 36.23 36.54 36.62 36.70 36.74 36.79 36.34 35.84 35.30 34.89 34.59 34.25 33.99 33.76 33.54 33.33 33.06 32.82 32.52 32.23 31.91 31.71 31.65 31.57 31.56 31.58 31.47 31.47 31.63 31.92 32.08
28.22 27.96 27.65 27.45 27.18 27.30 27.67 28.18 28.48 28.70 29.03 29.31 29.45 29.59 29.76 29.96 30.36 30.95 31.53 32.04 32.47 32.96 33.40 33.82 34.01 34.46 35.00 35.32 35.53 35.56 35.46 35.32 35.47 35.75 36.13 36.50 36.69 36.60 36.53 36.58 36.45 36.35 36.34 36.44 36.00 35.50 35.05 34.69 34.41 34.08 33.85 33.60 33.35 33.18 32.98 32.67 32.36 32.05 31.80 31.60 31.44 31.31 31.32 31.33 31.28 31.27 31.39 31.66 31.89
28.31 27.91 27.48 27.26 27.11 27.27 27.67 28.09 28.49 28.71 28.87 28.97 29.10 29.22 29.32 29.58 29.97 30.49 31.10 31.65 32.03 32.48 32.88 33.35 33.84 34.22 34.56 34.75 34.74 34.85 34.91 34.94 35.22 35.67 36.23 36.57 36.59 36.63 36.46 36.10 35.77 35.88 36.10 36.02 35.69 35.34 34.91 34.62 34.32 34.06 33.74 33.51 33.29 33.05 32.90 32.64 32.39 32.02 31.71 31.45 31.31 31.15 31.11 31.01 31.03 31.19 31.40 31.70 31.93
27.84 27.74 27.51 27.31 27.24 27.27 27.45 27.82 28.16 28.35 28.42 28.45 28.55 28.81 29.05 29.30 29.57 29.88 30.25 30.81 31.31 31.76 32.12 32.58 32.99 33.48 34.01 34.44 34.45 34.60 34.76 35.08 35.47 35.95 36.37 36.83 36.85 36.79 36.47 35.79 35.47 35.68 35.90 35.71 35.42 35.14 34.78 34.51 34.25 33.98 33.67 33.37 33.16 32.98 32.65 32.34 32.08 31.75 31.43 31.11 31.09 30.99 31.03 31.00 31.08 31.25 31.49 31.80 32.06
27.42 27.31 27.24 27.36 27.36 27.43 27.58 27.69 27.94 28.01 27.96 27.94 28.08 28.39 28.74 29.09 29.27 29.56 29.91 30.55 30.92 31.19 31.42 31.80 32.30 32.84 33.35 33.90 34.22 34.37 34.56 34.77 35.34 36.01 36.55 36.92 36.74 36.29 35.77 35.05 34.94 35.31 35.62 35.43 35.22 34.91 34.69 34.38 34.11 33.88 33.52 33.26 33.16 32.85 32.44 32.01 31.64 31.26 30.99 30.77 30.61 30.57 30.66 30.84 31.05 31.36 31.65 32.05 32.22
27.18 27.04 27.03 27.07 27.33 27.44 27.54 27.55 27.66 27.57 27.55 27.49 27.71 27.95 28.21 28.59 29.04 29.42 29.93 30.53 30.62 30.67 30.80 31.14 31.61 31.99 32.33 32.76 33.27 33.75 34.09 34.36 34.80 35.32 35.81 36.19 35.86 35.27 34.69 34.24 34.48 34.91 35.39 35.36 35.09 34.82 34.57 34.35 34.08 33.72 33.47 33.20 33.02 32.69 32.26 31.81 31.47 31.03 30.65 30.38 30.13 30.11 30.30 30.59 30.85 31.21 31.59 32.04 32.28
26.75 26.82 26.83 26.69 26.97 27.15 27.27 27.23 27.12 27.00 26.96 27.03 27.22 27.46 27.80 28.22 28.67 29.22 29.71 30.20 30.04 29.99 30.10 30.45 30.64 30.83 31.04 31.45 31.95 32.69 33.45 34.16 34.35 34.53 34.73 35.07 34.74 34.32 34.05 34.19 34.53 35.02 35.40 35.47 35.29 34.91 34.56 34.34 33.99 33.52 33.18 32.88 32.67 32.35 31.98 31.57 31.26 30.93 30.52 30.09 29.89 29.93 30.18 30.57 30.76 30.93 31.21 31.45 31.67
27.03 27.05 26.86 26.56 26.61 26.78 26.86 26.75 26.42 26.30 26.34 26.58 26.91 27.28 27.49 27.76 28.15 28.65 29.15 29.56 29.43 29.35 29.45 29.62 29.76 29.98 30.30 30.80 31.20 31.89 32.69 33.49 33.78 33.84 33.87 34.05 33.95 33.87 33.91 34.43 34.97 35.49 35.93 36.12 35.69 35.18 34.60 34.18 33.70 33.26 32.90 32.56 32.28 31.97 31.74 31.44 30.97 30.64 30.24 30.01 29.84 29.89 30.08 30.51 30.71 30.81 30.84 30.70 30.53
26.97 27.06 26.97 26.64 26.47 26.37 26.36 26.18 26.02 25.97 26.09 26.25 26.50 26.72 27.00 27.06 27.39 27.87 28.42 29.03 29.08 29.06 29.11 29.10 29.28 29.63 30.04 30.51 30.64 30.90 31.41 32.21 32.87 33.23 33.21 33.21 33.45 33.72 33.91 34.24 34.52 35.15 35.87 36.50 36.24 35.57 34.87 34.13 33.57 33.08 32.65 32.42 32.14 31.91 31.66 31.26 30.76 30.30 30.05 29.78 29.68 29.76 29.97 30.40 30.55 30.61 30.55 30.42 30.07
26.42 26.57 26.57 26.42 26.17 26.03 25.88 25.79 25.78 25.96 26.15 26.22 26.13 26.25 26.45 26.68 27.01 27.43 27.90 28.41 28.66 28.77 28.88 28.91 29.14 29.56 29.92 30.18 30.08 30.00 30.24 30.83 31.55 32.13 32.59 32.78 33.10 33.45 33.70 33.86 33.91 34.21 34.67 35.23 35.59 35.58 35.22 34.56 33.88 33.24 32.77 32.57 32.33 32.07 31.67 31.12 30.38 29.94 29.75 29.59 29.48 29.49 29.73 30.17 30.46 30.50 30.38 30.39 30.22
25.84 25.86 25.85 25.76 25.68 25.56 25.43 25.32 25.54 25.90 26.19 26.21 26.09 26.22 26.48 26.85 27.09 27.40 27.71 27.86 28.14 28.33 28.57 28.68 28.98 29.32 29.62 29.79 29.63 29.44 29.37 29.62 30.30 30.98 31.64 32.06 32.47 32.87 33.20 33.38 33.35 33.41 33.51 33.79 34.21 34.49 34.73 34.89 34.51 33.86 33.15 32.67 32.46 32.19 31.70 30.97 29.82 29.34 29.28 29.34 29.29 29.30 29.40 29.72 30.01 30.15 30.17 30.13 30.34
MSLP
1010.58 1010.66 1010.74 1010.90 1010.98 1011.06 1011.10 1011.22 1011.30 1011.38 1011.42 1011.50 1011.66 1011.74 1011.86 1012.06 1012.34 1012.54 1012.62 1012.66 1012.74 1012.82 1012.98 1013.18 1013.26 1013.26 1013.26 1013.26 1013.26 1013.26 1013.26 1013.26 1013.26 1013.30 1013.38 1013.42 1013.42 1013.46 1013.42 1013.42 1013.38 1013.38 1013.50 1013.58 1013.70 1013.78 1013.90 1014.06 1014.22 1014.34 1014.46 1014.66 1014.74 1014.86 1014.98 1015.06 1015.10 1015.06 1015.10 1015.14 1015.26 1015.30 1015.38 1015.46 1015.54 1015.66 1015.70 1015.78 1015.90
1010.62 1010.70 1010.90 1011.06 1011.10 1011.14 1011.22 1011.30 1011.38 1011.50 1011.58 1011.70 1011.78 1011.90 1012.06 1012.34 1012.54 1012.70 1012.82 1012.98 1013.06 1013.10 1013.22 1013.34 1013.38 1013.38 1013.38 1013.38 1013.42 1013.42 1013.42 1013.42 1013.46 1013.46 1013.54 1013.62 1013.66 1013.70 1013.70 1013.66 1013.62 1013.62 1013.70 1013.74 1013.82 1013.94 1014.06 1014.18 1014.34 1014.54 1014.70 1014.82 1014.94 1015.06 1015.22 1015.34 1015.30 1015.30 1015.34 1015.38 1015.50 1015.54 1015.66 1015.74 1015.86 1015.94 1015.98 1016.10 1016.18
1010.70 1010.82 1010.98 1011.10 1011.18 1011.22 1011.26 1011.38 1011.54 1011.70 1011.90 1012.06 1012.14 1012.22 1012.34 1012.54 1012.70 1012.90 1013.06 1013.14 1013.26 1013.30 1013.38 1013.46 1013.54 1013.54 1013.54 1013.54 1013.58 1013.58 1013.58 1013.62 1013.66 1013.70 1013.74 1013.78 1013.82 1013.94 1013.98 1013.94 1013.90 1013.90 1013.90 1013.94 1013.98 1014.10 1014.26 1014.38 1014.54 1014.66 1014.86 1015.06 1015.18 1015.30 1015.42 1015.54 1015.58 1015.62 1015.66 1015.74 1015.78 1015.82 1015.94 1016.06 1016.18 1016.26 1016.30 1016.38 1016.46
1010.70 1010.82 1010.98 1011.06 1011.14 1011.22 1011.34 1011.54 1011.82 1012.06 1012.22 1012.34 1012.42 1012.50 1012.62 1012.78 1012.98 1013.10 1013.22 1013.34 1013.38 1013.46 1013.54 1013.62 1013.70 1013.70 1013.70 1013.74 1013.74 1013.78 1013.78 1013.82 1013.86 1013.90 1013.98 1013.98 1014.06 1014.18 1014.22 1014.18 1014.14 1014.18 1014.18 1014.18 1014.26 1014.34 1014.46 1014.54 1014.70 1014.94 1015.14 1015.30 1015.42 1015.54 1015.66 1015.74 1015.82 1015.90 1015.98 1016.02 1016.10 1016.10 1016.18 1016.26 1016.38 1016.50 1016.54 1016.62 1016.70
1010.86 1010.98 1011.10 1011.22 1011.30 1011.46 1011.70 1011.94 1012.14 1012.26 1012.38 1012.54 1012.62 1012.74 1012.86 1013.02 1013.14 1013.26 1013.38 1013.46 1013.54 1013.66 1013.70 1013.78 1013.82 1013.86 1013.90 1013.90 1013.86 1013.86 1013.90 1013.98 1014.10 1014.18 1014.26 1014.26 1014.34 1014.42 1014.50 1014.50 1014.50 1014.50 1014.50 1014.50 1014.50 1014.58 1014.70 1014.82 1014.98 1015.22 1015.46 1015.62 1015.70 1015.82 1015.86 1015.94 1015.98 1016.10 1016.18 1016.26 1016.26 1016.34 1016.38 1016.50 1016.54 1016.62 1016.70 1016.78 1016.82
1011.30 1011.42 1011.54 1011.70 1011.82 1011.98 1012.10 1012.22 1012.38 1012.46 1012.54 1012.62 1012.74 1012.94 1013.06 1013.18 1013.30 1013.38 1013.50 1013.62 1013.74 1013.82 1013.94 1013.98 1013.98 1014.02 1014.06 1014.02 1013.98 1013.98 1014.06 1014.18 1014.34 1014.46 1014.50 1014.54 1014.62 1014.66 1014.74 1014.78 1014.82 1014.82 1014.82 1014.82 1014.82 1014.86 1014.98 1015.06 1015.26 1015.54 1015.74 1015.86 1015.98 1016.02 1016.06 1016.02 1016.14 1016.26 1016.34 1016.38 1016.42 1016.50 1016.58 1016.66 1016.78 1016.82 1016.86 1016.90 1016.98
1011.70 1011.82 1011.94 1011.98 1012.10 1012.26 1012.38 1012.46 1012.54 1012.62 1012.66 1012.82 1012.98 1013.10 1013.26 1013.38 1013.50 1013.58 1013.70 1013.78 1013.94 1014.02 1014.10 1014.10 1014.18 1014.22 1014.22 1014.22 1014.18 1014.18 1014.26 1014.46 1014.66 1014.74 1014.78 1014.82 1014.90 1014.98 1015.02 1015.02 1015.10 1015.10 1015.14 1015.14 1015.14 1015.18 1015.26 1015.30 1015.50 1015.70 1015.94 1016.06 1016.14 1016.22 1016.26 1016.26 1016.34 1016.38 1016.50 1016.54 1016.62 1016.74 1016.82 1016.94 1017.02 1017.06 1017.10 1017.10 1017.18
1012.06 1012.18 1012.26 1012.34 1012.42 1012.54 1012.66 1012.70 1012.78 1012.86 1012.98 1013.06 1013.22 1013.38 1013.50 1013.66 1013.74 1013.82 1013.90 1014.02 1014.10 1014.22 1014.26 1014.34 1014.38 1014.42 1014.42 1014.42 1014.38 1014.42 1014.54 1014.74 1014.90 1014.98 1015.06 1015.10 1015.18 1015.26 1015.26 1015.34 1015.38 1015.42 1015.50 1015.54 1015.50 1015.54 1015.58 1015.66 1015.74 1015.94 1016.10 1016.26 1016.38 1016.46 1016.54 1016.54 1016.54 1016.58 1016.66 1016.74 1016.82 1016.98 1017.10 1017.26 1017.30 1017.34 1017.38 1017.42 1017.46
1012.38 1012.54 1012.66 1012.70 1012.82 1012.86 1012.98 1013.02 1013.10 1013.14 1013.22 1013.30 1013.42 1013.58 1013.74 1013.86 1013.98 1014.02 1014.10 1014.26 1014.38 1014.42 1014.46 1014.54 1014.62 1014.66 1014.66 1014.66 1014.66 1014.70 1014.82 1014.98 1015.10 1015.22 1015.30 1015.38 1015.38 1015.46 1015.54 1015.62 1015.70 1015.74 1015.82 1015.90 1015.94 1015.98 1015.98 1016.06 1016.14 1016.26 1016.38 1016.54 1016.58 1016.70 1016.78 1016.82 1016.82 1016.82 1016.90 1016.98 1017.10 1017.26 1017.38 1017.46 1017.46 1017.50 1017.54 1017.54 1017.66
1012.70 1012.86 1012.98 1013.10 1013.14 1013.26 1013.30 1013.38 1013.42 1013.46 1013.46 1013.58 1013.70 1013.86 1013.98 1014.10 1014.18 1014.26 1014.38 1014.54 1014.58 1014.58 1014.66 1014.78 1014.82 1014.82 1014.82 1014.90 1014.98 1015.06 1015.10 1015.22 1015.34 1015.42 1015.54 1015.58 1015.70 1015.74 1015.82 1015.90 1015.98 1016.06 1016.14 1016.26 1016.30 1016.34 1016.38 1016.42 1016.54 1016.62 1016.70 1016.82 1016.90 1016.98 1017.06 1017.06 1017.10 1017.18 1017.26 1017.38 1017.46 1017.54 1017.58 1017.62 1017.58 1017.58 1017.62 1017.66 1017.70
1013.06 1013.18 1013.30 1013.38 1013.50 1013.54 1013.58 1013.70 1013.74 1013.82 1013.82 1013.90 1014.02 1014.14 1014.26 1014.38 1014.50 1014.58 1014.66 1014.70 1014.74 1014.82 1014.90 1014.98 1015.02 1015.02 1015.06 1015.14 1015.22 1015.30 1015.38 1015.46 1015.54 1015.70 1015.74 1015.82 1015.94 1016.06 1016.14 1016.26 1016.26 1016.34 1016.42 1016.54 1016.62 1016.62 1016.62 1016.70 1016.82 1016.90 1016.98 1017.10 1017.18 1017.26 1017.30 1017.34 1017.38 1017.50 1017.62 1017.70 1017.82 1017.82 1017.82 1017.82 1017.78 1017.70 1017.70 1017.78 1017.86
1013.42 1013.54 1013.66 1013.74 1013.82 1013.82 1013.86 1013.94 1014.02 1014.10 1014.18 1014.26 1014.34 1014.46 1014.58 1014.66 1014.78 1014.82 1014.86 1014.90 1014.94 1015.02 1015.14 1015.22 1015.26 1015.26 1015.26 1015.30 1015.38 1015.54 1015.66 1015.70 1015.82 1015.90 1015.98 1016.10 1016.22 1016.34 1016.46 1016.54 1016.54 1016.58 1016.70 1016.82 1016.90 1016.90 1016.90 1016.98 1017.06 1017.14 1017.26 1017.38 1017.46 1017.50 1017.54 1017.58 1017.66 1017.74 1017.82 1017.90 1017.94 1017.98 1017.98 1017.98 1017.98 1017.98 1017.98 1018.02 1018.10
1013.78 1013.86 1013.98 1014.02 1014.10 1014.10 1014.14 1014.26 1014.34 1014.38 1014.50 1014.54 1014.66 1014.78 1014.90 1014.98 1015.06 1015.10 1015.10 1015.10 1015.18 1015.26 1015.38 1015.46 1015.46 1015.46 1015.50 1015.54 1015.66 1015.78 1015.86 1015.98 1015.98 1016.10 1016.18 1016.30 1016.46 1016.62 1016.70 1016.78 1016.78 1016.82 1016.94 1017.06 1017.06 1017.10 1017.14 1017.26 1017.34 1017.42 1017.54 1017.66 1017.74 1017.74 1017.74 1017.78 1017.82 1017.90 1017.98 1018.02 1018.06 1018.10 1018.14 1018.22 1018.22 1018.26 1018.30 1018.34 1018.46
1014.10 1014.18 1014.26 1014.30 1014.34 1014.38 1014.46 1014.54 1014.62 1014.74 1014.82 1014.90 1014.98 1015.06 1015.14 1015.26 1015.34 1015.38 1015.38 1015.38 1015.42 1015.54 1015.62 1015.70 1015.70 1015.70 1015.74 1015.78 1015.86 1015.98 1016.06 1016.10 1016.18 1016.26 1016.38 1016.50 1016.66 1016.78 1016.82 1016.94 1016.98 1017.06 1017.14 1017.26 1017.26 1017.34 1017.42 1017.54 1017.66 1017.74 1017.82 1017.94 1018.02 1018.06 1018.02 1017.98 1018.02 1018.10 1018.14 1018.18 1018.22 1018.26 1018.34 1018.38 1018.50 1018.58 1018.66 1018.66 1018.78
1014.38 1014.50 1014.54 1014.54 1014.58 1014.66 1014.74 1014.82 1014.98 1015.06 1015.14 1015.22 1015.26 1015.34 1015.38 1015.50 1015.54 1015.58 1015.62 1015.66 1015.70 1015.82 1015.86 1015.90 1015.94 1015.98 1015.98 1015.98 1016.06 1016.14 1016.26 1016.34 1016.38 1016.46 1016.54 1016.66 1016.82 1016.94 1017.02 1017.10 1017.26 1017.34 1017.42 1017.54 1017.66 1017.70 1017.74 1017.82 1017.98 1018.10 1018.18 1018.30 1018.38 1018.38 1018.30 1018.26 1018.26 1018.30 1018.38 1018.38 1018.42 1018.50 1018.58 1018.70 1018.82 1018.94 1018.98 1019.02 1019.10
1014.74 1014.82 1014.82 1014.86 1014.90 1014.98 1015.06 1015.14 1015.26 1015.38 1015.46 1015.50 1015.54 1015.58 1015.70 1015.74 1015.82 1015.82 1015.82 1015.90 1015.98 1016.02 1016.06 1016.06 1016.10 1016.14 1016.22 1016.26 1016.30 1016.38 1016.42 1016.54 1016.54 1016.58 1016.66 1016.82 1016.98 1017.18 1017.30 1017.38 1017.54 1017.66 1017.78 1017.86 1017.94 1017.98 1018.02 1018.14 1018.30 1018.46 1018.54 1018.66 1018.66 1018.62 1018.58 1018.54 1018.54 1018.54 1018.54 1018.62 1018.66 1018.74 1018.90 1019.06 1019.18 1019.26 1019.34 1019.34 1019.38
1015.06 1015.10 1015.14 1015.22 1015.26 1015.26 1015.38 1015.46 1015.58 1015.66 1015.70 1015.78 1015.82 1015.94 1015.98 1016.02 1016.06 1016.10 1016.10 1016.14 1016.14 1016.18 1016.22 1016.26 1016.26 1016.30 1016.38 1016.46 1016.54 1016.58 1016.66 1016.70 1016.70 1016.78 1016.86 1017.06 1017.26 1017.46 1017.58 1017.70 1017.82 1017.94 1018.02 1018.10 1018.10 1018.22 1018.34 1018.54 1018.62 1018.74 1018.86 1018.90 1018.86 1018.86 1018.82 1018.82 1018.82 1018.78 1018.78 1018.82 1018.98 1019.10 1019.26 1019.38 1019.54 1019.58 1019.62 1019.62 1019.62
1015.42 1015.50 1015.54 1015.54 1015.54 1015.62 1015.70 1015.74 1015.82 1015.90 1015.98 1016.10 1016.14 1016.26 1016.26 1016.26 1016.30 1016.38 1016.42 1016.42 1016.38 1016.34 1016.38 1016.42 1016.50 1016.54 1016.54 1016.66 1016.78 1016.86 1016.90 1016.94 1016.98 1017.02 1017.14 1017.38 1017.54 1017.70 1017.82 1017.94 1018.02 1018.14 1018.26 1018.26 1018.30 1018.42 1018.58 1018.74 1018.82 1018.94 1019.02 1019.06 1019.02 1019.06 1019.10 1019.06 1019.06 1019.06 1019.10 1019.18 1019.30 1019.46 1019.58 1019.70 1019.82 1019.82 1019.82 1019.82 1019.78
1015.78 1015.82 1015.86 1015.90 1015.94 1015.98 1015.98 1016.02 1016.10 1016.18 1016.26 1016.38 1016.42 1016.54 1016.58 1016.58 1016.62 1016.66 1016.70 1016.66 1016.54 1016.54 1016.54 1016.58 1016.66 1016.74 1016.82 1016.90 1017.02 1017.14 1017.26 1017.26 1017.26 1017.30 1017.46 1017.62 1017.78 1017.90 1017.98 1018.10 1018.22 1018.30 1018.42 1018.50 1018.54 1018.62 1018.74 1018.86 1018.98 1019.06 1019.10 1019.10 1019.14 1019.22 1019.26 1019.30 1019.34 1019.42 1019.50 1019.54 1019.66 1019.74 1019.82 1019.98 1019.98 1019.98 1019.98 1019.90 1019.86
1016.14 1016.22 1016.26 1016.26 1016.26 1016.30 1016.34 1016.38 1016.46 1016.54 1016.58 1016.66 1016.74 1016.78 1016.82 1016.94 1016.98 1016.98 1016.98 1016.90 1016.82 1016.78 1016.74 1016.78 1016.82 1016.98 1017.10 1017.18 1017.26 1017.38 1017.46 1017.50 1017.50 1017.58 1017.74 1017.90 1018.06 1018.14 1018.26 1018.38 1018.46 1018.54 1018.62 1018.66 1018.74 1018.82 1018.90 1018.98 1019.06 1019.10 1019.10 1019.14 1019.26 1019.34 1019.42 1019.54 1019.66 1019.78 1019.82 1019.82 1019.86 1019.94 1020.02 1020.10 1020.10 1020.10 1020.06 1019.98 1020.02
1016.50 1016.54 1016.62 1016.66 1016.66 1016.66 1016.70 1016.74 1016.78 1016.82 1016.90 1016.98 1017.02 1017.10 1017.14 1017.26 1017.26 1017.26 1017.26 1017.22 1017.14 1017.10 1017.02 1017.06 1017.10 1017.18 1017.30 1017.38 1017.50 1017.54 1017.62 1017.70 1017.70 1017.82 1017.98 1018.10 1018.26 1018.38 1018.50 1018.58 1018.66 1018.78 1018.82 1018.86 1018.94 1019.02 1019.06 1019.10 1019.10 1019.14 1019.18 1019.26 1019.38 1019.50 1019.58 1019.70 1019.82 1019.94 1019.98 1019.98 1020.02 1020.10 1020.14 1020.18 1020.22 1020.18 1020.14 1020.14 1020.18
1016.86 1016.94 1016.98 1016.98 1017.02 1017.02 1017.02 1017.06 1017.10 1017.14 1017.22 1017.26 1017.38 1017.42 1017.50 1017.50 1017.54 1017.58 1017.54 1017.50 1017.42 1017.38 1017.34 1017.34 1017.38 1017.42 1017.54 1017.66 1017.70 1017.70 1017.78 1017.82 1017.90 1017.98 1018.14 1018.30 1018.46 1018.62 1018.74 1018.82 1018.86 1018.94 1019.02 1019.10 1019.18 1019.22 1019.22 1019.22 1019.26 1019.30 1019.38 1019.46 1019.58 1019.70 1019.78 1019.82 1019.94 1020.02 1020.10 1020.14 1020.14 1020.18 1020.26 1020.26 1020.26 1020.26 1020.26 1020.30 1020.38
1017.22 1017.26 1017.30 1017.34 1017.34 1017.30 1017.34 1017.38 1017.38 1017.42 1017.50 1017.54 1017.70 1017.70 1017.74 1017.82 1017.86 1017.86 1017.82 1017.70 1017.66 1017.58 1017.58 1017.62 1017.70 1017.74 1017.82 1017.90 1017.90 1017.90 1017.98 1017.98 1018.10 1018.26 1018.38 1018.54 1018.70 1018.86 1018.98 1019.02 1019.06 1019.10 1019.22 1019.30 1019.38 1019.38 1019.38 1019.42 1019.50 1019.54 1019.62 1019.70 1019.82 1019.86 1019.94 1019.98 1020.06 1020.10 1020.18 1020.18 1020.18 1020.26 1020.30 1020.38 1020.38 1020.42 1020.46 1020.50 1020.58
1017.54 1017.58 1017.62 1017.62 1017.62 1017.62 1017.62 1017.62 1017.66 1017.70 1017.78 1017.90 1017.98 1018.02 1018.06 1018.14 1018.14 1018.10 1017.98 1017.94 1017.86 1017.86 1017.90 1017.98 1017.98 1018.06 1018.10 1018.14 1018.14 1018.14 1018.14 1018.22 1018.34 1018.50 1018.66 1018.82 1018.98 1019.10 1019.14 1019.22 1019.26 1019.34 1019.42 1019.54 1019.54 1019.54 1019.54 1019.62 1019.70 1019.82 1019.90 1019.98 1020.02 1020.06 1020.10 1020.14 1020.18 1020.18 1020.18 1020.22 1020.26 1020.34 1020.42 1020.54 1020.58 1020.58 1020.62 1020.66 1020.70
1017.90 1017.90 1017.94 1017.94 1017.90 1017.90 1017.90 1017.98 1017.98 1018.10 1018.18 1018.26 1018.34 1018.38 1018.38 1018.34 1018.30 1018.26 1018.22 1018.18 1018.14 1018.18 1018.22 1018.26 1018.26 1018.30 1018.38 1018.38 1018.38 1018.42 1018.46 1018.50 1018.62 1018.74 1018.90 1019.06 1019.14 1019.26 1019.30 1019.38 1019.46 1019.54 1019.70 1019.74 1019.74 1019.70 1019.70 1019.78 1019.86 1019.98 1020.10 1020.22 1020.26 1020.34 1020.38 1020.38 1020.34 1020.30 1020.30 1020.30 1020.38 1020.46 1020.54 1020.62 1020.66 1020.70 1020.78 1020.82 1020.82
1018.22 1018.22 1018.22 1018.26 1018.22 1018.22 1018.26 1018.38 1018.42 1018.50 1018.58 1018.62 1018.66 1018.66 1018.62 1018.54 1018.54 1018.50 1018.46 1018.42 1018.42 1018.42 1018.42 1018.50 1018.54 1018.58 1018.66 1018.66 1018.66 1018.70 1018.74 1018.82 1018.90 1019.02 1019.10 1019.22 1019.26 1019.26 1019.30 1019.38 1019.54 1019.74 1019.86 1019.90 1019.90 1019.90 1019.94 1019.98 1020.10 1020.18 1020.30 1020.42 1020.54 1020.58 1020.58 1020.62 1020.58 1020.54 1020.54 1020.54 1020.54 1020.58 1020.66 1020.66 1020.78 1020.82 1020.86 1020.90 1020.90
1018.46 1018.50 1018.54 1018.54 1018.54 1018.54 1018.66 1018.82 1018.82 1018.86 1018.98 1018.98 1018.98 1018.94 1018.78 1018.70 1018.70 1018.66 1018.66 1018.66 1018.66 1018.66 1018.70 1018.78 1018.82 1018.86 1018.90 1018.90 1018.94 1018.98 1018.98 1019.02 1019.10 1019.14 1019.18 1019.22 1019.26 1019.26 1019.38 1019.54 1019.70 1019.90 1020.06 1020.10 1020.10 1020.10 1020.14 1020.26 1020.34 1020.42 1020.54 1020.62 1020.74 1020.78 1020.74 1020.74 1020.74 1020.70 1020.74 1020.74 1020.78 1020.82 1020.82 1020.82 1020.86 1020.90 1020.90 1020.98 1020.98
1018.78 1018.82 1018.86 1018.86 1018.90 1018.98 1019.02 1019.10 1019.14 1019.14 1019.18 1019.26 1019.22 1019.10 1018.98 1018.90 1018.86 1018.82 1018.82 1018.94 1018.98 1018.98 1018.98 1018.98 1018.98 1019.06 1019.10 1019.14 1019.14 1019.18 1019.18 1019.22 1019.26 1019.34 1019.38 1019.38 1019.34 1019.42 1019.54 1019.74 1019.90 1020.06 1020.18 1020.26 1020.26 1020.30 1020.38 1020.46 1020.54 1020.66 1020.74 1020.82 1020.86 1020.90 1020.86 1020.82 1020.82 1020.82 1020.82 1020.94 1020.94 1020.98 1021.02 1021.06 1021.06 1021.02 1021.02 1021.02 1020.98
1019.10 1019.14 1019.18 1019.22 1019.26 1019.30 1019.34 1019.38 1019.38 1019.34 1019.34 1019.38 1019.38 1019.26 1019.14 1019.06 1018.98 1018.98 1019.06 1019.14 1019.18 1019.14 1019.14 1019.14 1019.14 1019.18 1019.26 1019.30 1019.34 1019.34 1019.34 1019.38 1019.50 1019.54 1019.54 1019.54 1019.54 1019.62 1019.74 1019.90 1020.06 1020.22 1020.34 1020.38 1020.42 1020.50 1020.58 1020.66 1020.78 1020.82 1020.94 1020.98 1020.94 1020.90 1020.90 1020.94 1020.98 1020.98 1021.02 1021.10 1021.10 1021.14 1021.18 1021.22 1021.18 1021.14 1021.14 1021.10 1021.10
1019.38 1019.46 1019.50 1019.54 1019.62 1019.62 1019.58 1019.58 1019.54 1019.54 1019.54 1019.54 1019.50 1019.42 1019.34 1019.26 1019.26 1019.26 1019.30 1019.38 1019.38 1019.34 1019.30 1019.30 1019.34 1019.34 1019.38 1019.46 1019.46 1019.46 1019.54 1019.58 1019.62 1019.62 1019.62 1019.66 1019.70 1019.78 1019.94 1020.06 1020.22 1020.34 1020.46 1020.54 1020.62 1020.70 1020.82 1020.86 1020.98 1021.02 1021.06 1021.10 1021.06 1021.06 1021.06 1021.10 1021.14 1021.18 1021.26 1021.26 1021.34 1021.34 1021.34 1021.38 1021.38 1021.38 1021.30 1021.26 1021.18
1019.70 1019.74 1019.78 1019.82 1019.90 1019.90 1019.82 1019.70 1019.70 1019.70 1019.66 1019.62 1019.58 1019.54 1019.50 1019.42 1019.50 1019.50 1019.54 1019.54 1019.58 1019.58 1019.54 1019.54 1019.54 1019.54 1019.54 1019.58 1019.62 1019.70 1019.74 1019.82 1019.82 1019.82 1019.86 1019.86 1019.90 1020.02 1020.18 1020.26 1020.38 1020.54 1020.62 1020.70 1020.82 1020.90 1020.98 1021.06 1021.14 1021.18 1021.22 1021.22 1021.22 1021.22 1021.26 1021.26 1021.34 1021.38 1021.42 1021.50 1021.50 1021.54 1021.54 1021.50 1021.50 1021.50 1021.46 1021.38 1021.30
1019.98 1019.98 1020.06 1020.10 1020.18 1020.10 1020.02 1019.94 1019.90 1019.86 1019.82 1019.82 1019.78 1019.74 1019.70 1019.70 1019.70 1019.74 1019.74 1019.82 1019.82 1019.78 1019.70 1019.66 1019.66 1019.70 1019.70 1019.74 1019.82 1019.90 1019.98 1020.10 1020.14 1020.22 1020.22 1020.18 1020.14 1020.22 1020.34 1020.50 1020.62 1020.74 1020.82 1020.94 1020.98 1021.10 1021.14 1021.22 1021.30 1021.38 1021.38 1021.38 1021.42 1021.42 1021.46 1021.50 1021.54 1021.54 1021.62 1021.70 1021.70 1021.70 1021.66 1021.62 1021.62 1021.58 1021.54 1021.50 1021.42
1020.30 1020.34 1020.34 1020.34 1020.38 1020.38 1020.34 1020.26 1020.22 1020.14 1020.10 1020.02 1019.98 1019.98 1019.98 1019.98 1019.98 1019.98 1020.02 1020.02 1019.98 1019.94 1019.90 1019.82 1019.82 1019.82 1019.90 1019.98 1020.10 1020.22 1020.30 1020.38 1020.42 1020.42 1020.38 1020.38 1020.38 1020.38 1020.50 1020.66 1020.86 1020.98 1021.06 1021.10 1021.18 1021.26 1021.30 1021.38 1021.46 1021.54 1021.54 1021.58 1021.62 1021.62 1021.62 1021.66 1021.70 1021.70 1021.78 1021.82 1021.82 1021.82 1021.82 1021.82 1021.78 1021.74 1021.70 1021.66 1021.54
1020.58 1020.62 1020.62 1020.62 1020.66 1020.66 1020.66 1020.54 1020.50 1020.38 1020.34 1020.26 1020.26 1020.22 1020.22 1020.26 1020.26 1020.26 1020.30 1020.30 1020.26 1020.22 1020.14 1020.14 1020.14 1020.18 1020.22 1020.26 1020.34 1020.42 1020.50 1020.58 1020.58 1020.58 1020.54 1020.54 1020.54 1020.58 1020.66 1020.82 1021.02 1021.14 1021.18 1021.26 1021.30 1021.38 1021.42 1021.54 1021.62 1021.70 1021.74 1021.78 1021.74 1021.74 1021.74 1021.74 1021.78 1021.82 1021.86 1021.90 1021.94 1021.98 1021.98 1021.98 1021.94 1021.90 1021.82 1021.78 1021.66
1020.78 1020.82 1020.82 1020.86 1020.86 1020.86 1020.82 1020.78 1020.70 1020.66 1020.58 1020.54 1020.50 1020.46 1020.46 1020.50 1020.54 1020.54 1020.54 1020.54 1020.54 1020.50 1020.46 1020.46 1020.50 1020.54 1020.54 1020.54 1020.58 1020.62 1020.66 1020.66 1020.66 1020.66 1020.70 1020.70 1020.78 1020.82 1020.98 1021.10 1021.22 1021.26 1021.30 1021.38 1021.38 1021.46 1021.54 1021.66 1021.74 1021.82 1021.86 1021.86 1021.82 1021.82 1021.82 1021.82 1021.82 1021.90 1021.98 1021.98 1021.98 1022.02 1022.02 1022.02 1022.02 1021.98 1021.94 1021.82 1021.74
1020.98 1020.98 1021.02 1021.10 1021.10 1021.06 1021.02 1020.98 1020.90 1020.82 1020.78 1020.74 1020.74 1020.70 1020.70 1020.70 1020.74 1020.74 1020.78 1020.74 1020.70 1020.66 1020.70 1020.74 1020.78 1020.78 1020.78 1020.82 1020.82 1020.82 1020.82 1020.82 1020.86 1020.90 1020.94 1020.98 1021.02 1021.10 1021.22 1021.26 1021.38 1021.38 1021.42 1021.50 1021.54 1021.62 1021.70 1021.78 1021.86 1021.94 1021.94 1021.90 1021.86 1021.86 1021.86 1021.90 1021.90 1021.98 1021.98 1021.98 1022.02 1022.06 1022.10 1022.10 1022.10 1022.06 1021.98 1021.90 1021.82
1021.26 1021.26 1021.26 1021.26 1021.26 1021.18 1021.14 1021.14 1021.10 1021.02 1020.98 1020.94 1020.90 1020.90 1020.90 1020.90 1020.90 1020.94 1020.98 1020.94 1020.86 1020.90 1020.98 1020.98 1021.02 1021.02 1021.06 1021.10 1021.10 1021.10 1021.10 1021.02 1021.02 1021.06 1021.14 1021.22 1021.30 1021.38 1021.38 1021.46 1021.50 1021.54 1021.54 1021.58 1021.70 1021.78 1021.86 1021.90 1021.98 1021.98 1021.98 1021.90 1021.90 1021.90 1021.90 1021.94 1021.98 1022.02 1022.02 1022.02 1022.06 1022.10 1022.10 1022.10 1022.10 1022.10 1022.06 1022.02 1021.98
1021.42 1021.42 1021.38 1021.38 1021.38 1021.34 1021.34 1021.30 1021.26 1021.22 1021.18 1021.14 1021.10 1021.10 1021.10 1021.10 1021.10 1021.14 1021.14 1021.14 1021.10 1021.10 1021.14 1021.22 1021.26 1021.30 1021.38 1021.38 1021.38 1021.38 1021.38 1021.34 1021.30 1021.34 1021.38 1021.46 1021.54 1021.58 1021.58 1021.58 1021.62 1021.66 1021.70 1021.74 1021.82 1021.90 1021.98 1022.02 1022.06 1022.06 1022.02 1021.98 1021.98 1021.94 1021.98 1021.98 1022.02 1022.06 1022.06 1022.06 1022.10 1022.10 1022.14 1022.14 1022.14 1022.10 1022.10 1022.14 1022.18
1021.70 1021.66 1021.62 1021.58 1021.54 1021.54 1021.54 1021.54 1021.50 1021.46 1021.42 1021.38 1021.38 1021.38 1021.38 1021.38 1021.38 1021.42 1021.46 1021.42 1021.38 1021.38 1021.38 1021.46 1021.54 1021.58 1021.66 1021.66 1021.66 1021.66 1021.66 1021.70 1021.66 1021.62 1021.66 1021.70 1021.74 1021.70 1021.70 1021.66 1021.70 1021.78 1021.82 1021.94 1021.98 1022.02 1022.10 1022.10 1022.14 1022.18 1022.14 1022.10 1022.06 1022.02 1022.02 1022.06 1022.10 1022.10 1022.10 1022.10 1022.10 1022.10 1022.10 1022.14 1022.14 1022.10 1022.10 1022.14 1022.22
1021.94 1021.94 1021.86 1021.82 1021.82 1021.78 1021.78 1021.74 1021.70 1021.70 1021.70 1021.70 1021.70 1021.70 1021.70 1021.70 1021.70 1021.74 1021.74 1021.74 1021.70 1021.70 1021.70 1021.78 1021.82 1021.82 1021.86 1021.86 1021.86 1021.90 1021.94 1021.98 1021.98 1021.98 1021.98 1021.98 1021.94 1021.90 1021.82 1021.78 1021.82 1021.90 1021.98 1022.06 1022.10 1022.14 1022.18 1022.18 1022.26 1022.26 1022.26 1022.18 1022.14 1022.10 1022.10 1022.14 1022.14 1022.10 1022.10 1022.10 1022.10 1022.10 1022.06 1022.10 1022.10 1022.10 1022.10 1022.10 1022.10
1022.14 1022.14 1022.10 1022.10 1022.06 1022.02 1021.98 1021.98 1021.94 1021.94 1021.90 1021.90 1021.90 1021.94 1021.94 1021.94 1021.94 1021.94 1021.98 1021.98 1021.98 1021.98 1021.98 1022.02 1022.02 1022.06 1022.06 1022.06 1022.10 1022.10 1022.10 1022.18 1022.22 1022.26 1022.22 1022.18 1022.10 1022.10 1022.06 1022.02 1022.06 1022.10 1022.18 1022.26 1022.26 1022.26 1022.26 1022.26 1022.30 1022.34 1022.30 1022.26 1022.22 1022.18 1022.18 1022.18 1022.26 1022.18 1022.10 1022.10 1022.10 1022.10 1022.06 1022.02 1022.06 1022.10 1022.06 1022.06 1022.02
Wind_Speed
8 7 6 5 5 5 4 4 3 3 3 3 3 3 2 2 2 3 3 3 3 3 3 3 2 2 3 4 4 4 5 6 6 7 7 7 6 6 6 6 7 7 8 8 8 8 7 7 6 5 5 5 5 5 5 4 5 5 6 6 6 6 7 8 7 7 8 7 6
9 8 7 6 5 4 4 4 3 3 2 2 2 3 3 3 3 3 3 3 3 3 3 3 3 3 4 5 5 5 6 6 7 7 8 8 8 7 7 6 7 7 8 8 8 7 7 7 7 6 5 4 5 5 5 5 5 6 7 7 6 6 6 7 7 7 7 7 6
9 8 8 7 6 5 4 4 3 3 3 3 2 3 4 4 4 4 4 4 4 4 4 3 3 4 5 5 5 6 6 7 7 7 8 8 8 8 8 7 8 8 8 8 8 7 7 7 7 6 5 5 5 5 5 5 6 6 7 7 6 5 5 5 6 6 6 5 6
10 9 8 7 7 6 5 4 4 4 4 3 4 4 4 4 4 4 4 5 5 4 4 4 4 4 5 6 7 7 7 8 8 8 8 8 9 9 9 8 8 8 8 9 9 9 9 8 7 6 6 6 7 6 5 5 5 5 5 5 5 5 5 5 5 5 5 5 5
6 6 5 4 5 5 4 4 5 5 4 4 4 4 4 4 4 4 4 4 4 4 4 5 5 4 5 6 8 9 9 9 9 8 8 9 9 9 9 9 9 9 9 9 10 10 10 9 7 6 6 6 6 5 5 6 6 6 5 4 5 5 5 5 5 4 4 4 4
5 5 5 5 5 5 5 5 5 5 5 5 5 5 4 4 4 4 5 5 5 6 6 6 6 5 6 7 8 9 9 9 9 8 9 9 9 10 10 10 10 9 9 10 10 10 10 9 7 6 6 6 6 6 6 7 6 6 5 5 5 5 6 6 5 5 5 5 6
7 7 7 7 7 6 6 5 6 6 6 6 7 7 6 5 6 6 6 6 6 6 6 5 5 5 6 7 8 9 9 9 9 9 9 9 9 10 10 10 10 10 10 9 9 9 9 8 7 6 6 6 6 6 7 7 6 6 6 6 6 6 6 6 5 5 6 8 8
9 9 9 8 8 8 7 7 6 6 6 6 8 8 8 8 8 7 7 7 6 5 5 5 6 7 7 7 8 9 10 10 9 9 9 9 10 10 11 11 11 11 10 10 9 9 8 7 7 6 6 6 5 6 8 9 8 8 8 8 7 6 6 6 5 6 7 8 8
9 9 9 9 9 9 8 8 8 8 8 8 9 9 9 9 8 8 7 6 6 6 6 6 7 8 8 8 9 9 9 9 10 9 9 10 11 11 10 10 11 11 11 10 10 10 9 7 7 6 6 6 6 7 8 9 9 9 9 8 7 7 6 6 6 7 7 8 9
9 9 9 9 9 9 9 9 9 10 10 10 10 10 10 9 8 7 7 6 6 7 7 7 8 9 9 9 9 9 9 9 9 10 10 10 11 11 11 10 11 11 10 10 10 10 10 8 8 8 8 7 8 9 9 10 10 10 8 7 7 7 7 7 7 7 8 8 9
10 10 9 8 9 9 9 9 9 9 10 10 10 10 10 9 8 7 7 7 7 8 8 8 8 9 9 9 9 9 9 9 9 10 11 11 12 11 11 10 11 11 11 10 9 9 8 8 9 10 10 9 9 9 10 10 10 10 9 7 7 7 7 7 7 7 8 8 9
10 10 9 9 9 9 9 9 8 9 9 10 10 10 9 8 8 8 8 9 9 9 9 8 9 9 9 9 9 9 10 10 11 11 12 12 12 12 11 11 11 11 11 10 9 8 8 9 10 11 11 10 8 8 9 10 10 10 9 8 8 8 8 8 8 7 7 8 8
10 10 10 9 9 9 9 9 8 9 9 10 9 9 9 8 8 8 9 9 9 9 8 8 9 9 9 9 9 9 10 10 11 12 12 12 12 12 12 12 12 12 11 10 10 9 9 10 11 11 11 10 8 8 8 9 9 9 9 9 9 9 9 9 8 8 8 8 8
10 10 9 9 9 9 9 9 8 8 9 9 9 9 8 8 8 8 8 9 9 8 8 8 8 8 9 10 10 10 10 11 12 12 13 12 12 12 12 12 12 12 11 10 10 11 11 11 11 11 11 10 9 9 9 9 9 9 9 9 10 10 9 9 9 8 8 8 8
10 10 9 9 9 9 9 9 8 8 8 9 8 8 8 7 7 7 8 9 9 8 8 8 8 9 10 11 11 11 11 11 12 13 13 13 13 13 13 12 12 12 11 11 11 11 11 12 11 11 10 10 9 9 9 9 9 9 9 10 10 10 10 9 8 8 7 7 7
10 10 10 10 10 9 9 8 7 7 8 8 8 8 7 6 6 7 8 8 8 8 8 9 9 9 10 11 11 11 11 12 12 13 14 14 14 13 13 12 12 12 12 11 11 11 11 11 10 10 10 9 9 9 9 10 10 10 10 11 11 10 10 9 8 8 7 7 7
11 10 10 10 10 10 9 8 7 7 8 9 9 8 7 6 6 7 7 7 7 8 9 9 9 9 9 10 10 10 10 11 12 13 13 14 13 13 12 12 12 12 12 12 12 12 11 11 10 10 10 9 9 9 9 10 10 11 11 11 11 10 10 9 8 7 7 7 7
11 11 11 11 11 11 11 10 9 9 9 10 9 8 7 7 7 7 7 8 8 9 10 10 10 10 10 10 10 9 9 10 12 13 13 13 13 13 12 12 12 12 11 12 12 12 12 11 10 10 10 9 9 9 10 10 10 11 11 11 11 10 9 8 8 7 7 7 7
11 11 11 11 11 11 11 11 11 10 10 10 9 9 9 9 8 8 8 8 9 10 11 11 11 11 11 11 11 10 10 11 12 13 14 13 13 13 13 12 12 12 12 12 12 12 11 11 11 10 10 10 10 10 10 10 10 11 10 10 10 9 9 8 7 7 7 7 7
11 11 11 11 11 11 11 11 11 11 10 10 10 10 10 10 9 9 8 8 9 10 11 11 11 11 11 12 12 11 11 10 12 14 14 13 13 13 13 13 12 12 12 12 11 11 11 11 11 11 11 11 11 11 11 10 10 10 9 9 9 9 9 8 8 8 8 8 8
12 11 11 11 11 11 11 11 11 11 11 10 10 10 10 10 9 9 9 9 9 10 11 11 12 12 12 12 12 12 11 11 12 13 13 13 13 13 13 12 12 12 11 11 11 11 11 11 11 11 11 11 11 11 10 10 10 10 9 8 9 9 9 9 8 8 8 8 8
11 11 11 11 11 11 11 11 11 11 11 11 10 10 10 9 9 9 9 9 10 10 11 11 11 11 11 11 11 11 11 11 12 13 13 13 13 12 12 12 12 12 12 11 11 11 11 11 11 11 11 11 10 10 10 10 10 9 9 9 9 9 9 9 9 8 8 8 7
11 11 10 11 11 12 12 12 11 11 11 11 10 10 10 9 9 9 9 9 10 10 10 10 10 11 11 11 11 11 12 12 13 13 13 13 12 12 12 11 12 12 11 10 10 10 10 10 11 11 10 10 10 10 10 10 9 9 9 10 10 10 9 9 8 8 7 7 6
11 10 9 9 11 12 12 12 12 12 12 11 11 10 10 9 9 9 9 10 10 10 10 9 9 10 11 11 11 12 13 13 13 13 13 13 12 12 11 11 11 10 10 8 9 9 9 8 9 9 9 9 9 9 9 9 9 9 9 10 10 9 9 9 8 8 7 6 6
11 10 10 10 11 12 12 12 12 12 11 10 10 9 9 9 8 9 9 10 10 10 10 10 10 9 10 10 11 12 12 13 13 13 12 12 11 11 11 10 10 9 9 9 11 12 11 9 8 8 8 8 8 8 8 9 9 9 9 9 9 9 8 8 8 7 7 6 5
11 11 11 11 11 12 12 13 12 11 10 9 9 9 8 8 8 9 9 10 10 10 10 10 9 9 9 9 10 11 11 11 11 11 11 11 11 11 11 10 9 9 9 11 13 14 14 13 11 9 8 7 7 8 8 8 9 9 9 9 8 8 7 7 7 7 6 6 5
11 11 11 11 12 12 12 11 11 10 9 9 8 8 8 8 8 9 9 9 9 9 9 9 9 9 9 9 10 10 10 10 10 11 11 11 12 12 12 11 9 9 10 13 15 15 15 14 13 11 9 8 7 7 7 7 8 8 9 8 8 7 7 7 6 6 6 6 5
11 11 11 11 11 11 11 10 10 9 9 8 8 8 8 8 9 9 9 9 9 8 8 8 8 7 7 8 9 10 10 10 10 10 10 11 12 12 12 11 10 11 12 15 15 15 15 14 13 12 11 8 7 7 7 7 7 7 7 7 7 7 7 6 6 5 5 5 4
11 11 11 11 10 10 10 9 9 8 8 8 8 8 8 9 9 9 9 9 8 8 7 6 6 6 7 8 9 9 10 10 10 9 10 11 12 12 12 12 12 13 14 16 16 15 15 14 14 12 11 9 7 6 6 6 6 6 6 6 6 6 6 6 5 5 5 4 4
11 11 10 10 9 9 9 8 8 8 7 7 8 9 10 10 10 10 10 9 8 7 7 6 7 7 8 9 9 9 9 8 8 9 10 11 12 12 12 12 12 13 14 16 16 16 15 15 14 13 12 10 8 7 6 6 6 6 6 6 6 6 6 5 5 5 5 4 4
10 10 10 10 9 8 8 8 8 8 8 8 9 10 10 10 10 10 9 9 8 8 8 9 9 10 10 10 10 9 9 9 9 9 10 11 12 12 12 12 12 13 14 16 16 16 15 15 14 13 12 11 8 7 6 7 7 6 6 6 6 6 6 5 5 5 5 5 4
9 10 10 10 9 8 8 8 8 8 9 9 10 10 10 10 10 9 9 9 9 9 9 10 11 11 11 11 11 11 11 10 10 10 10 10 11 12 12 12 12 13 14 15 15 15 15 14 14 13 12 11 9 8 7 7 7 6 6 6 6 6 6 5 5 5 5 5 4
9 9 9 9 9 8 8 8 8 8 9 9 10 10 10 10 9 9 8 8 8 9 10 10 11 11 11 11 11 11 11 11 10 10 10 10 10 11 11 11 11 12 13 15 14 14 14 14 14 13 12 10 8 7 7 7 6 5 5 6 6 6 5 5 5 4 4 4 4
9 9 9 9 8 8 7 7 8 8 9 9 10 10 10 9 9 9 8 8 8 8 9 10 10 10 10 11 11 11 10 10 10 10 10 10 10 10 10 9 9 11 13 14 14 13 13 13 13 12 11 9 7 6 6 6 5 5 5 5 5 5 5 4 4 4 4 4 3
9 9 9 8 8 8 7 7 8 8 9 9 10 10 9 9 9 9 8 8 8 8 9 9 9 9 10 10 10 10 10 10 10 10 10 10 10 11 11 10 10 11 13 13 13 13 13 13 12 11 9 7 6 5 5 6 5 5 5 5 5 5 5 4 4 4 4 3 4
8 9 9 8 8 8 8 8 8 8 9 9 9 9 9 9 9 8 8 8 9 9 9 9 9 9 10 10 10 10 10 10 11 11 11 11 11 11 11 11 11 11 12 13 13 12 12 12 11 10 8 6 4 4 4 4 4 5 5 5 5 5 5 4 4 4 4 4 5
8 8 8 8 8 8 8 8 8 9 9 9 9 9 9 9 8 8 8 8 9 9 9 9 9 10 10 10 9 9 9 10 11 11 11 11 11 11 10 10 9 10 11 12 12 12 12 11 10 8 6 5 4 4 4 3 3 4 4 5 5 5 4 4 4 4 5 5 6
8 8 8 8 8 8 8 8 8 9 9 9 9 9 8 8 8 8 8 7 8 9 9 9 9 9 9 9 9 10 10 10 11 11 11 11 10 10 9 9 9 9 10 12 12 12 12 11 9 8 6 4 4 3 3 3 3 3 4 4 4 4 4 3 3 3 4 6 7
8 8 8 8 8 8 8 8 9 9 9 9 8 8 8 8 7 7 7 7 8 8 9 9 9 9 9 9 9 10 10 10 11 11 11 10 10 10 10 9 9 10 11 12 12 12 11 11 9 8 6 5 4 3 3 3 3 3 3 3 3 3 3 3 2 3 4 5 6
7 8 8 8 8 8 8 8 8 8 8 8 8 8 8 8 7 7 7 7 8 8 9 9 9 9 9 9 9 10 10 10 10 10 10 10 10 10 11 10 10 11 11 11 11 11 10 10 9 8 6 5 4 3 3 3 3 3 3 3 3 3 2 2 2 2 3 4 5
7 7 8 8 8 8 8 8 8 8 8 8 8 8 8 7 7 7 7 7 8 8 8 8 9 9 9 9 9 9 10 10 10 10 10 10 10 10 10 10 10 10 10 10 10 10 9 9 8 7 6 5 4 3 3 3 3 3 4 4 3 3 2 2 2 2 3 3 4
Wind_Direction
198 192 186 185 183 181 177 173 170 170 170 169 165 156 141 120 98 78 65 62 69 78 84 82 79 74 70 67 71 75 78 78 77 74 69 61 58 60 68 80 87 92 96 98 96 94 92 90 87 83 78 74 72 66 60 54 61 68 73 75 74 71 69 68 68 68 69 70 73
195 188 182 180 178 175 171 166 163 156 147 140 140 132 123 113 103 93 84 78 82 86 91 90 87 84 81 77 77 78 78 78 77 75 72 65 59 57 60 68 77 83 89 92 92 92 91 90 88 85 81 76 76 73 68 59 64 70 74 75 75 74 71 70 69 69 70 69 71
190 185 181 180 178 174 168 158 152 136 120 106 99 98 99 99 96 95 93 90 90 92 93 93 89 87 86 85 82 79 77 75 75 74 74 71 64 59 58 62 70 75 80 84 87 88 88 87 85 83 81 78 78 78 75 68 70 73 76 75 76 77 76 75 73 71 70 68 70
188 183 180 180 177 169 157 142 142 134 123 106 94 88 86 90 94 97 97 94 90 88 89 92 89 86 86 88 86 82 77 74 73 73 72 73 68 64 60 60 65 69 73 78 82 85 86 84 82 80 80 80 80 81 82 82 80 80 80 78 79 79 81 81 78 77 76 77 75
179 169 160 160 153 143 134 134 137 132 120 105 99 95 92 94 97 99 97 91 85 83 84 87 86 85 85 88 88 84 79 73 72 71 71 71 70 67 64 61 63 65 70 74 78 81 82 82 82 81 81 80 79 83 89 95 91 89 86 83 79 79 80 80 80 81 83 86 83
114 108 104 105 105 106 109 116 116 113 107 102 99 97 95 95 95 95 93 92 89 87 85 83 83 84 84 85 85 82 79 74 72 72 73 73 71 69 67 64 63 64 67 71 75 78 80 81 82 82 82 82 79 76 78 85 88 87 84 80 76 74 73 73 73 75 77 80 80
82 83 84 85 86 88 92 95 96 94 91 92 91 91 90 89 90 90 91 91 89 86 82 79 78 80 82 82 82 81 80 77 75 74 74 75 73 71 69 67 64 62 62 65 70 74 77 80 82 82 80 79 74 66 63 67 75 79 78 74 71 68 67 67 67 68 70 72 72
72 71 70 71 74 77 80 82 86 88 88 87 89 89 89 87 88 88 87 85 85 83 81 78 78 79 80 80 82 83 83 83 80 78 77 78 76 74 71 69 66 62 59 58 62 65 69 72 75 76 75 71 68 63 60 62 69 73 74 73 71 70 69 69 69 71 72 72 70
70 68 66 66 69 71 73 75 80 85 88 88 88 88 87 86 86 86 85 83 85 86 85 83 82 81 80 79 81 82 84 85 83 81 79 78 77 75 72 71 69 66 62 59 61 63 65 68 69 69 69 67 68 66 65 65 68 70 71 73 74 74 75 77 79 80 79 77 74
71 70 68 68 69 72 74 74 76 79 83 84 84 83 83 82 82 82 84 87 87 86 86 86 86 85 82 80 79 81 83 85 85 83 80 78 76 74 73 72 71 70 67 63 64 65 67 69 70 70 69 69 71 71 70 69 70 69 69 71 75 78 79 80 81 81 79 77 73
71 71 70 71 72 74 76 76 74 74 76 80 80 79 78 77 79 82 87 91 88 87 86 88 88 88 87 85 83 83 84 85 85 84 81 79 77 75 74 74 73 72 70 67 66 67 69 72 74 74 73 72 73 73 73 73 75 75 75 77 77 77 76 74 73 73 73 72 71
71 71 71 72 73 74 76 76 75 74 74 77 78 78 77 77 79 83 87 89 87 87 86 86 88 89 89 89 88 88 87 88 88 87 85 82 81 79 77 76 75 74 73 70 69 70 71 73 76 76 76 74 74 76 78 80 82 83 83 81 78 73 69 65 64 64 67 69 70
72 72 73 73 73 74 74 74 74 74 74 76 77 77 77 77 79 82 85 87 86 86 85 84 85 87 89 90 91 91 91 91 91 91 89 87 85 83 81 78 77 76 75 74 74 75 75 76 77 78 79 78 78 81 84 86 87 87 85 81 76 71 66 61 60 61 64 67 68
71 72 73 74 74 74 74 73 73 73 74 75 76 77 77 75 76 79 83 85 86 86 86 84 83 84 88 92 94 95 95 95 94 93 92 90 88 86 84 81 79 78 78 77 78 79 80 80 80 81 82 82 81 82 82 83 84 83 80 77 74 70 66 62 60 60 62 65 67
69 70 71 73 74 74 74 74 74 73 73 74 75 74 74 73 73 77 82 86 87 88 88 87 85 86 88 91 94 95 96 97 96 95 93 91 89 87 86 85 84 84 84 83 82 81 81 82 82 83 83 84 83 82 80 79 79 78 76 74 72 69 66 62 60 59 61 64 66
67 68 69 71 73 74 75 74 74 73 72 72 71 71 70 71 73 78 83 88 89 90 91 91 90 90 91 91 93 95 97 97 96 95 93 91 90 88 88 87 88 88 89 89 87 85 83 83 84 84 85 85 84 82 80 79 78 77 75 73 71 69 67 64 62 61 61 63 65
66 66 67 70 72 74 75 76 76 74 73 72 69 68 67 68 72 77 81 88 92 93 93 92 92 92 92 92 92 93 95 95 94 93 91 91 91 90 90 90 90 91 91 92 90 89 87 87 88 88 87 86 83 81 79 77 76 75 74 73 72 71 70 68 67 66 66 66 66
65 66 67 69 72 74 75 77 77 76 75 73 70 68 66 67 71 75 79 86 91 94 94 93 92 91 91 91 89 89 90 91 91 91 91 91 92 92 92 92 91 91 91 90 90 91 91 92 92 91 89 86 83 79 77 75 75 74 74 74 75 74 73 72 70 70 70 69 66
66 66 67 69 71 73 74 75 76 76 75 74 73 71 68 67 68 71 76 81 87 91 94 95 93 91 90 91 91 90 89 89 89 90 90 90 90 90 90 89 89 89 88 89 90 91 92 93 92 91 89 87 83 80 78 76 76 75 76 77 78 77 76 74 72 70 69 67 65
68 68 68 69 71 72 73 73 74 74 74 74 73 72 71 68 66 66 69 72 78 84 90 94 94 93 93 94 95 94 93 91 90 90 90 89 88 87 87 87 87 87 87 87 87 88 89 90 90 89 88 86 84 83 82 81 80 80 80 81 80 79 78 75 72 69 66 64 61
69 69 70 71 71 72 72 72 73 73 72 72 71 72 71 70 67 66 66 66 70 75 81 87 90 93 95 97 98 97 96 94 93 92 91 89 88 87 86 86 86 85 85 84 85 86 86 87 87 86 85 85 85 85 85 85 85 85 84 83 81 80 77 74 70 67 63 60 57
70 70 71 72 72 73 73 73 73 72 71 69 69 69 69 70 68 66 65 65 67 69 73 77 83 89 94 97 98 99 98 96 94 92 91 89 88 87 86 86 85 84 83 82 83 84 84 83 83 83 83 84 85 85 86 87 88 87 86 85 82 79 76 72 68 65 62 59 57
70 70 71 72 73 73 73 73 72 71 70 69 68 68 68 69 68 67 65 65 67 68 70 73 78 84 89 93 95 96 96 94 93 91 90 90 89 88 87 86 84 84 84 83 84 84 83 82 81 80 81 83 84 85 86 87 89 89 87 85 82 78 74 70 67 64 62 60 59
70 70 70 72 72 72 72 71 70 69 68 68 68 69 69 69 68 66 66 66 68 69 70 72 77 82 86 90 92 93 94 95 94 94 93 93 93 92 90 87 85 84 84 84 86 86 86 85 83 82 81 82 82 83 84 85 86 86 85 83 81 78 75 71 68 65 63 60 59
69 69 70 71 72 71 69 68 67 67 68 68 69 69 70 69 68 68 69 69 70 72 74 76 78 81 85 89 92 93 95 96 97 98 99 99 99 97 94 91 87 85 84 86 87 88 88 88 87 86 85 83 83 82 81 79 79 78 78 78 78 77 76 74 70 67 63 59 55
69 68 68 70 71 71 70 69 69 68 68 68 69 70 71 73 73 73 73 73 74 77 79 80 82 84 87 91 94 96 97 98 101 103 105 105 102 99 95 91 89 87 87 88 89 88 88 88 88 88 88 87 86 84 82 78 75 74 73 73 73 73 72 71 68 64 60 55 51
70 68 67 69 71 72 72 72 71 70 69 69 70 73 76 79 80 80 78 78 79 82 85 86 89 90 92 93 96 98 100 101 102 102 102 101 99 96 93 91 90 91 91 91 90 90 90 91 91 91 91 90 89 88 86 84 79 76 73 70 68 66 65 63 61 58 54 50 46
70 70 68 68 70 72 74 74 74 74 75 75 75 76 79 81 83 83 83 83 85 86 88 89 91 93 94 95 97 100 101 101 99 97 95 95 95 94 94 93 93 93 93 92 91 91 92 93 93 93 93 93 93 90 88 85 81 77 73 70 66 63 60 57 54 50 48 44 41
71 71 69 67 68 71 75 76 77 79 81 82 80 79 78 79 79 79 79 80 82 83 86 89 91 94 96 99 100 101 102 102 104 105 104 102 99 97 96 96 95 94 93 91 90 91 91 93 93 93 92 91 90 88 84 80 77 74 70 67 63 60 57 53 49 45 42 39 34
73 72 70 67 66 69 73 77 79 81 83 85 84 82 80 79 77 76 75 75 75 78 83 89 92 95 97 99 99 98 98 101 105 107 106 102 98 95 94 94 93 92 91 90 90 90 91 92 91 89 87 85 83 81 79 76 74 71 68 65 61 59 57 55 49 44 38 32 29
75 75 73 70 66 67 70 75 77 79 81 83 83 82 80 79 77 77 77 77 79 82 86 90 92 93 94 94 93 91 89 87 88 90 92 94 95 95 94 93 92 91 90 90 90 91 91 91 89 87 84 81 79 78 77 76 74 71 68 64 59 54 52 51 47 41 35 29 25
76 76 75 73 68 67 68 72 76 78 79 80 80 79 78 78 77 77 77 78 81 84 86 88 89 89 89 88 87 85 84 82 82 85 90 96 98 99 98 96 93 92 91 91 92 92 92 91 89 87 84 81 79 78 78 78 76 74 70 65 58 51 45 42 42 38 33 28 24
79 78 77 77 73 70 69 72 76 78 79 79 78 78 78 78 77 76 75 74 76 78 80 81 83 84 85 86 85 85 84 84 87 91 95 99 101 102 102 99 96 95 94 94 94 94 94 93 92 90 88 86 85 84 83 82 80 77 72 66 59 53 48 44 42 37 31 26 21
85 84 84 83 81 79 76 76 78 80 80 80 79 79 79 79 78 77 75 74 74 74 74 74 76 79 82 84 85 86 87 88 90 92 95 96 98 99 100 99 98 98 98 97 97 97 96 95 95 94 92 90 88 87 86 84 81 77 72 66 60 55 51 49 46 40 32 24 20
88 89 89 88 87 86 84 82 82 82 82 81 81 80 79 79 79 78 78 78 77 76 75 74 75 77 79 81 83 84 85 86 85 85 86 87 90 93 95 96 98 99 99 98 97 96 96 96 96 96 95 93 91 88 85 83 79 74 68 63 59 56 54 53 50 43 34 26 21
87 90 92 92 91 89 87 85 84 83 82 81 80 78 78 77 77 77 78 79 79 78 77 76 76 76 76 76 77 78 79 81 80 78 78 79 84 89 94 99 102 102 101 99 97 96 96 96 96 95 94 91 88 85 82 78 74 69 63 59 57 55 55 56 52 45 37 29 22
85 89 91 92 90 88 87 85 83 82 80 78 77 76 75 74 74 73 74 77 79 79 78 77 75 74 72 71 71 70 71 74 76 76 76 75 78 83 90 99 103 103 102 101 100 98 96 95 93 90 86 81 79 77 75 72 68 62 57 54 56 56 56 58 55 49 41 32 23
83 85 87 88 87 86 84 83 81 80 79 77 76 74 73 72 71 70 70 73 78 80 80 78 76 75 74 73 71 68 66 68 71 73 74 73 74 77 84 91 94 96 97 99 101 99 97 93 88 82 73 65 64 65 65 64 60 54 50 48 53 56 57 58 56 51 44 37 25
78 81 83 85 85 84 83 82 81 81 80 80 78 76 74 72 71 70 70 72 77 80 82 81 80 79 78 77 75 70 66 64 66 68 70 71 70 72 75 79 80 81 83 88 93 95 94 91 86 78 67 56 53 53 56 56 52 48 44 41 46 53 58 59 53 48 43 37 27
77 80 82 84 85 85 85 84 83 83 83 83 82 80 78 77 77 76 76 76 79 81 83 85 85 84 83 80 78 74 70 66 64 64 66 66 66 67 69 72 73 71 71 71 75 80 83 84 82 77 67 54 47 47 51 52 43 37 34 34 36 40 47 51 47 40 32 28 24
81 83 84 86 87 87 87 87 86 85 84 84 83 83 82 82 83 83 84 84 85 86 87 88 89 88 86 83 81 78 75 71 67 65 63 63 62 63 64 68 69 67 63 58 56 56 59 63 68 68 64 52 43 42 46 50 38 27 22 27 29 29 30 32 31 27 21 14 14